Location: Lane
(33.5226°N, 79.8788°W)
Time: 07:15:50
(UTC+00:00)

Explorer 7 - Pass Details

Date: 10 October 2022
Orbit: 481 x 665 km, 50.3° (Epoch: 28 November)

Event Time Altitude Azimuth Distance (km) Brightness Sun altitude
Rises 11:29:33 0° 204° (SSW) 2,881 10.3 1.0°
Reaches altitude 10° 11:31:58 10° 195° (SSW) 2,005 9.6 1.5°
Maximum altitude 11:36:10 34° 130° (SE) 1,062 9.1 2.4°
Drops below altitude 10° 11:40:30 10° 66° (ENE) 2,077 10.8 3.3°
Sets 11:43:02 0° 57° (ENE) 3,000 11.4 3.8°
